| time (UTC) | temp F | wind direction | speed knots | gust knots | rain 1hr in | rain 24hr in | rain mn in | humidity % | barometer mb |
| 20260903154302 | 90 | 194 | 3.5 | 7.8 | 0.00 | 0.00 | 0.00 | 61 | 1016.5 |
| 20260903153731 | 90 | 177 | 2.6 | 6.1 | 0.00 | 0.00 | 0.00 | 62 | 1016.4 |
| 20260903153229 | 90 | 44 | 2.6 | 5.2 | 0.00 | 0.00 | 0.00 | 63 | 1016.4 |
| 20260903153026 | 89 | 167 | 1.7 | 6.1 | 0.00 | 0.00 | 0.00 | 63 | 1014.7 |
| 20260903152728 | 90 | 166 | 2.6 | 6.1 | 0.00 | 0.00 | 0.00 | 63 | 1016.4 |
| 20260903152202 | 89 | 185 | 2.6 | 7.8 | 0.00 | 0.00 | 0.00 | 63 | 1016.4 |
| 20260903151636 | 89 | 134 | 1.7 | 7.0 | 0.00 | 0.00 | 0.00 | 64 | 1016.4 |
| 20260903151525 | 89 | 132 | 1.7 | 7.0 | 0.00 | 0.00 | 0.00 | 63 | 1014.7 |
| 20260903151135 | 89 | 188 | 1.7 | 5.2 | 0.00 | 0.00 | 0.00 | 65 | 1016.4 |
| 20260903150608 | 89 | 186 | 2.6 | 7.0 | 0.00 | 0.00 | 0.00 | 64 | 1016.4 |
| 20260903150043 | 89 | 152 | 2.6 | 7.0 | 0.00 | 0.00 | 0.00 | 65 | 1016.3 |
| 20260903150014 | 88 | 152 | 2.6 | 7.0 | 0.00 | 0.00 | 0.00 | 64 | 1014.6 |
| 20260903145517 | 89 | 199 | 2.6 | 6.1 | 0.00 | 0.00 | 0.00 | 64 | 1016.4 |
| 20260903145207 | 89 | 202 | 1.7 | 5.2 | 0.00 | 0.00 | 0.00 | 63 | 1016.4 |
| 20260903144526 | 88 | 191 | 1.7 | 4.3 | 0.00 | 0.00 | 0.00 | 66 | 1014.6 |
| 20260903144446 | 89 | 184 | 1.7 | 5.2 | 0.00 | 0.00 | 0.00 | 66 | 1016.3 |
| 20260903143921 | 88 | 191 | 1.7 | 5.2 | 0.00 | 0.00 | 0.00 | 67 | 1016.3 |
| 20260903143356 | 88 | 201 | 1.7 | 4.3 | 0.00 | 0.00 | 0.00 | 66 | 1016.3 |
| 20260903143103 | 88 | 209 | 1.7 | 3.5 | 0.00 | 0.00 | 0.00 | 66 | 1014.6 |
| 20260903142842 | 88 | 213 | 1.7 | 4.3 | 0.00 | 0.00 | 0.00 | 66 | 1016.3 |
| 20260903142344 | 88 | 214 | 1.7 | 5.2 | 0.00 | 0.00 | 0.00 | 66 | 1016.3 |
| 20260903141839 | 87 | 216 | 2.6 | 6.1 | 0.00 | 0.00 | 0.00 | 66 | 1016.4 |
| 20260903141529 | 87 | 197 | 0.9 | 6.1 | 0.00 | 0.00 | 0.00 | 67 | 1014.6 |
| 20260903141340 | 87 | 155 | 1.7 | 6.1 | 0.00 | 0.00 | 0.00 | 65 | 1016.3 |
| 20260903141028 | 86 | 150 | 1.7 | 5.2 | 0.00 | 0.00 | 0.00 | 67 | 1016.3 |
| 20260903140307 | 86 | 130 | 1.7 | 4.3 | 0.00 | 0.00 | 0.00 | 70 | 1016.3 |
| 20260903140023 | 85 | 129 | 1.7 | 4.3 | 0.00 | 0.00 | 0.00 | 69 | 1014.6 |
| 20260903135738 | 86 | 144 | 1.7 | 2.6 | 0.00 | 0.00 | 0.00 | 70 | 1016.3 |
| 20260903135236 | 85 | 145 | 0.9 | 3.5 | 0.00 | 0.00 | 0.00 | 71 | 1016.4 |
| 20260903134909 | 84 | 146 | 1.7 | 2.6 | 0.00 | 0.00 | 0.00 | 74 | 1016.5 |
| 20260903134755 | 84 | 146 | 0.9 | 3.5 | 0.00 | 0.00 | 0.00 | 73 | 1016.5 |
| 20260903134506 | 84 | 146 | 0.9 | 3.5 | 0.00 | 0.00 | 0.00 | 73 | 1014.8 |
| 20260903133904 | 83 | 146 | 1.7 | 3.5 | 0.00 | 0.00 | 0.00 | 74 | 1016.5 |
| 20260903133116 | 83 | 146 | 1.7 | 4.3 | 0.00 | 0.00 | 0.00 | 75 | 1016.6 |
| 20260903133044 | 82 | 146 | 1.7 | 3.5 | 0.00 | 0.00 | 0.00 | 75 | 1014.9 |
| 20260903132545 | 83 | 146 | 1.7 | 4.3 | 0.00 | 0.00 | 0.00 | 76 | 1016.7 |
| 20260903132044 | 82 | 141 | 2.6 | 4.3 | 0.00 | 0.00 | 0.00 | 77 | 1016.7 |
| 20260903132024 | 82 | 142 | 1.7 | 4.3 | 0.00 | 0.00 | 0.00 | 77 | 1016.7 |
| 20260903131558 | 81 | 142 | 1.7 | 4.3 | 0.00 | 0.00 | 0.00 | 77 | 1015.0 |
| 20260903131038 | 82 | 119 | 1.7 | 3.5 | 0.00 | 0.00 | 0.00 | 78 | 1016.8 |
| 20260903130737 | 81 | 116 | 1.7 | 3.5 | 0.00 | 0.00 | 0.00 | 78 | 1016.8 |
| 20260903130103 | 81 | 117 | 0.9 | 3.5 | 0.00 | 0.00 | 0.00 | 79 | 1015.1 |
| 20260903130012 | 81 | 117 | 1.7 | 3.5 | 0.00 | 0.00 | 0.00 | 79 | 1016.8 |
| 20260903125442 | 81 | 115 | 1.7 | 3.5 | 0.00 | 0.00 | 0.00 | 80 | 1016.8 |
| 20260903125204 | 80 | 115 | 1.7 | 2.6 | 0.00 | 0.00 | 0.00 | 81 | 1016.8 |
| 20260903124604 | 80 | 116 | 0.9 | 2.6 | 0.00 | 0.00 | 0.00 | 81 | 1015.1 |
| 20260903124414 | 80 | 115 | 1.7 | 3.5 | 0.00 | 0.00 | 0.00 | 81 | 1016.8 |
| 20260903124106 | 80 | 115 | 0.9 | 3.5 | 0.00 | 0.00 | 0.00 | 81 | 1017.0 |
| 20260903123343 | 80 | 113 | 0.9 | 3.5 | 0.00 | 0.00 | 0.00 | 82 | 1016.8 |
| 20260903123008 | 79 | 114 | 0.9 | 3.5 | 0.00 | 0.00 | 0.00 | 82 | 1015.1 |
| 20260903122838 | 79 | 113 | 0.9 | 3.5 | 0.00 | 0.00 | 0.00 | 82 | 1017.0 |
| 20260903122338 | 79 | 109 | 0.0 | 2.6 | 0.00 | 0.00 | 0.00 | 83 | 1017.0 |
| 20260903121810 | 79 | 106 | 0.0 | 0.9 | 0.00 | 0.00 | 0.00 | 83 | 1017.1 |
| 20260903121547 | 78 | 132 | 0.0 | 0.9 | 0.00 | 0.00 | 0.00 | 83 | 1015.2 |
| 20260903121305 | 79 | 115 | 0.0 | 1.7 | 0.00 | 0.00 | 0.00 | 83 | 1017.0 |
| 20260903120804 | 78 | 107 | 0.0 | 1.7 | 0.00 | 0.00 | 0.00 | 84 | 1017.0 |
| 20260903120238 | 78 | 106 | 0.0 | 0.0 | 0.00 | 0.00 | 0.00 | 84 | 1016.8 |
| 20260903120012 | 78 | 105 | 0.0 | 0.9 | 0.00 | 0.00 | 0.00 | 84 | 1015.1 |
| 20260903115738 | 78 | 101 | 0.0 | 1.7 | 0.00 | 0.00 | 0.00 | 84 | 1016.8 |
| 20260903115208 | 78 | 105 | 0.0 | 1.7 | 0.00 | 0.00 | 0.00 | 85 | 1016.8 |
| 20260903114705 | 78 | 107 | 0.0 | 1.7 | 0.00 | 0.00 | 0.00 | 85 | 1016.8 |
| 20260903114541 | 77 | 273 | 0.0 | 1.7 | 0.00 | 0.00 | 0.00 | 85 | 1015.0 |
| 20260903114201 | 78 | 106 | 0.0 | 1.7 | 0.00 | 0.00 | 0.00 | 85 | 1016.8 |
| 20260903113925 | 78 | 273 | 0.0 | 0.9 | 0.00 | 0.00 | 0.00 | 84 | 1016.8 |
| 20260903113350 | 78 | 107 | 0.0 | 0.9 | 0.00 | 0.00 | 0.00 | 84 | 1016.6 |
| 20260903113042 | 77 | 273 | 0.0 | 0.9 | 0.00 | 0.00 | 0.00 | 84 | 1014.9 |
| 20260903112628 | 78 | 107 | 0.0 | 0.9 | 0.00 | 0.00 | 0.00 | 84 | 1016.6 |
| 20260903112129 | 78 | 107 | 0.0 | 1.7 | 0.00 | 0.00 | 0.00 | 84 | 1016.5 |
| 20260903111827 | 78 | 108 | 0.0 | 1.7 | 0.00 | 0.00 | 0.00 | 84 | 1016.5 |
| 20260903111533 | 77 | 108 | 0.9 | 1.7 | 0.00 | 0.00 | 0.00 | 84 | 1014.8 |
| 20260903111038 | 78 | 109 | 0.0 | 1.7 | 0.00 | 0.00 | 0.00 | 84 | 1016.4 |
| 20260903110525 | 78 | 111 | 0.0 | 1.7 | 0.00 | 0.00 | 0.00 | 85 | 1016.4 |
| 20260903110202 | 78 | 112 | 0.0 | 1.7 | 0.00 | 0.00 | 0.00 | 85 | 1016.3 |
| 20260903110127 | 77 | 112 | 0.0 | 1.7 | 0.00 | 0.00 | 0.00 | 85 | 1014.6 |
| 20260903105439 | 78 | 113 | 0.0 | 0.9 | 0.00 | 0.00 | 0.00 | 85 | 1016.3 |
| 20260903104912 | 78 | 113 | 0.0 | 0.9 | 0.00 | 0.00 | 0.00 | 84 | 1016.2 |
| 20260903104537 | 78 | 107 | 0.0 | 0.9 | 0.00 | 0.00 | 0.00 | 84 | 1014.5 |
| 20260903104408 | 78 | 113 | 0.0 | 2.6 | 0.00 | 0.00 | 0.00 | 84 | 1016.2 |
| 20260903104129 | 78 | 273 | 0.0 | 2.6 | 0.00 | 0.00 | 0.00 | 84 | 1016.1 |
| 20260903103339 | 78 | 109 | 0.0 | 1.7 | 0.00 | 0.00 | 0.00 | 84 | 1016.1 |
| 20260903103026 | 78 | 273 | 0.0 | 2.6 | 0.00 | 0.00 | 0.00 | 84 | 1014.4 |
| 20260903102836 | 78 | 273 | 0.0 | 2.6 | 0.00 | 0.00 | 0.00 | 84 | 1016.1 |
| 20260903102528 | 78 | 112 | 0.9 | 2.6 | 0.00 | 0.00 | 0.00 | 84 | 1016.1 |
| 20260903101806 | 78 | 112 | 0.9 | 1.7 | 0.00 | 0.00 | 0.00 | 84 | 1016.1 |
| 20260903101541 | 78 | 114 | 0.0 | 1.7 | 0.00 | 0.00 | 0.00 | 84 | 1014.4 |
| 20260903101240 | 78 | 115 | 0.9 | 2.6 | 0.00 | 0.00 | 0.00 | 84 | 1016.1 |
| 20260903100714 | 78 | 273 | 0.9 | 2.6 | 0.00 | 0.00 | 0.00 | 84 | 1016.1 |
| 20260903100416 | 78 | 273 | 0.0 | 2.6 | 0.00 | 0.00 | 0.00 | 84 | 1016.1 |
| 20260903100054 | 78 | 116 | 0.0 | 0.9 | 0.00 | 0.00 | 0.00 | 84 | 1014.4 |
| 20260903095917 | 78 | 116 | 0.0 | 2.6 | 0.00 | 0.00 | 0.00 | 84 | 1016.0 |
| 20260903095152 | 78 | 116 | 0.0 | 2.6 | 0.00 | 0.00 | 0.00 | 84 | 1016.1 |
| 20260903094652 | 78 | 116 | 0.0 | 0.9 | 0.00 | 0.00 | 0.00 | 84 | 1016.0 |
| 20260903094609 | 78 | 117 | 0.0 | 0.9 | 0.00 | 0.00 | 0.00 | 84 | 1014.3 |
| 20260903094151 | 78 | 116 | 0.0 | 0.9 | 0.00 | 0.00 | 0.00 | 84 | 1016.0 |
| 20260903093653 | 78 | 116 | 0.0 | 0.9 | 0.00 | 0.00 | 0.00 | 84 | 1016.0 |
| 20260903093128 | 79 | 114 | 0.9 | 3.5 | 0.00 | 0.00 | 0.00 | 83 | 1015.9 |
| 20260903093055 | 78 | 114 | 0.0 | 3.5 | 0.00 | 0.00 | 0.00 | 83 | 1014.2 |
| 20260903092826 | 79 | 113 | 0.0 | 3.5 | 0.00 | 0.00 | 0.00 | 83 | 1015.9 |
| 20260903092057 | 79 | 113 | 0.0 | 2.6 | 0.00 | 0.00 | 0.00 | 82 | 1016.0 |
| 20260903091614 | 79 | 112 | 0.0 | 2.6 | 0.00 | 0.00 | 0.00 | 82 | 1014.2 |
| 20260903091552 | 79 | 112 | 0.0 | 2.6 | 0.00 | 0.00 | 0.00 | 82 | 1016.0 |
| 20260903091315 | 79 | 113 | 0.0 | 2.6 | 0.00 | 0.00 | 0.00 | 82 | 1016.0 |
| 20260903090523 | 79 | 107 | 0.9 | 2.6 | 0.00 | 0.00 | 0.00 | 82 | 1016.0 |
| 20260903090100 | 79 | 106 | 0.0 | 2.6 | 0.00 | 0.00 | 0.00 | 81 | 1014.3 |
| 20260903090021 | 80 | 107 | 0.9 | 2.6 | 0.00 | 0.00 | 0.00 | 81 | 1016.0 |
| 20260903085716 | 80 | 105 | 0.9 | 2.6 | 0.00 | 0.00 | 0.00 | 81 | 1016.0 |
| 20260903085146 | 80 | 101 | 0.0 | 1.7 | 0.00 | 0.00 | 0.00 | 81 | 1016.0 |
| 20260903084508 | 79 | 101 | 0.0 | 1.7 | 0.00 | 0.00 | 0.00 | 81 | 1014.1 |
| 20260903084430 | 80 | 101 | 0.9 | 1.7 | 0.00 | 0.00 | 0.00 | 81 | 1015.9 |
| 20260903083856 | 80 | 101 | 0.0 | 1.7 | 0.00 | 0.00 | 0.00 | 81 | 1015.8 |
| 20260903083351 | 80 | 101 | 0.0 | 0.9 | 0.00 | 0.00 | 0.00 | 81 | 1015.8 |
| 20260903083108 | 80 | 101 | 0.0 | 0.9 | 0.00 | 0.00 | 0.00 | 81 | 1015.8 |
| 20260903083040 | 79 | 101 | 0.0 | 0.0 | 0.00 | 0.00 | 0.00 | 81 | 1014.1 |
| 20260903082324 | 80 | 101 | 0.0 | 0.9 | 0.00 | 0.00 | 0.00 | 80 | 1015.9 |
| 20260903081758 | 80 | 101 | 0.0 | 2.6 | 0.00 | 0.00 | 0.00 | 80 | 1015.8 |
| 20260903081559 | 80 | 101 | 0.0 | 1.7 | 0.00 | 0.00 | 0.00 | 80 | 1014.1 |
| 20260903081256 | 80 | 101 | 0.9 | 2.6 | 0.00 | 0.00 | 0.00 | 80 | 1015.8 |
| 20260903080735 | 80 | 273 | 0.9 | 2.6 | 0.00 | 0.00 | 0.00 | 80 | 1015.9 |
| 20260903080206 | 80 | 273 | 0.9 | 2.6 | 0.00 | 0.00 | 0.00 | 79 | 1015.8 |
| 20260903080005 | 80 | 273 | 0.9 | 2.6 | 0.00 | 0.00 | 0.00 | 79 | 1014.1 |
| 20260903075706 | 80 | 273 | 0.9 | 2.6 | 0.00 | 0.00 | 0.00 | 79 | 1015.8 |
| 20260903075143 | 81 | 101 | 0.0 | 1.7 | 0.00 | 0.00 | 0.00 | 78 | 1015.8 |
| 20260903074643 | 81 | 273 | 0.9 | 2.6 | 0.00 | 0.00 | 0.00 | 78 | 1015.8 |
| 20260903074504 | 80 | 273 | 0.0 | 2.6 | 0.00 | 0.00 | 0.00 | 78 | 1014.0 |
| 20260903074117 | 81 | 273 | 0.9 | 2.6 | 0.00 | 0.00 | 0.00 | 78 | 1015.8 |
| 20260903073617 | 81 | 101 | 0.0 | 1.7 | 0.00 | 0.00 | 0.00 | 78 | 1015.7 |
| 20260903073053 | 81 | 101 | 0.0 | 0.9 | 0.00 | 0.00 | 0.00 | 78 | 1015.7 |
| 20260903073030 | 81 | 101 | 0.0 | 0.9 | 0.00 | 0.00 | 0.00 | 78 | 1014.0 |
| 20260903072531 | 81 | 273 | 0.0 | 0.9 | 0.00 | 0.00 | 0.00 | 77 | 1015.7 |
| 20260903072007 | 81 | 273 | 0.0 | 0.9 | 0.00 | 0.00 | 0.00 | 77 | 1015.7 |
| 20260903071551 | 81 | 273 | 0.0 | 0.9 | 0.00 | 0.00 | 0.00 | 77 | 1013.9 |
| 20260903071508 | 81 | 273 | 0.0 | 0.9 | 0.00 | 0.00 | 0.00 | 77 | 1015.6 |
| 20260903071204 | 82 | 273 | 0.9 | 1.7 | 0.00 | 0.00 | 0.00 | 77 | 1015.6 |
| 20260903070447 | 82 | 101 | 0.0 | 1.7 | 0.00 | 0.00 | 0.00 | 77 | 1015.6 |
| 20260903070107 | 81 | 101 | 0.0 | 1.7 | 0.00 | 0.00 | 0.00 | 76 | 1013.9 |
| 20260903065919 | 82 | 273 | 0.0 | 1.7 | 0.00 | 0.00 | 0.00 | 76 | 1015.6 |
| 20260903065353 | 82 | 101 | 0.9 | 1.7 | 0.00 | 0.00 | 0.00 | 76 | 1015.7 |
| 20260903065050 | 82 | 101 | 0.9 | 1.7 | 0.00 | 0.00 | 0.00 | 76 | 1015.7 |
| 20260903064542 | 81 | 273 | 0.0 | 1.7 | 0.00 | 0.00 | 0.00 | 76 | 1014.0 |
| 20260903064307 | 82 | 273 | 0.9 | 1.7 | 0.00 | 0.00 | 0.00 | 76 | 1015.7 |
| 20260903063807 | 82 | 273 | 0.9 | 3.5 | 0.00 | 0.00 | 0.00 | 76 | 1015.7 |
| 20260903063250 | 82 | 273 | 0.9 | 3.5 | 0.00 | 0.00 | 0.00 | 75 | 1015.7 |
| 20260903063047 | 82 | 273 | 0.0 | 1.7 | 0.00 | 0.00 | 0.00 | 76 | 1014.0 |
| 20260903062749 | 82 | 273 | 0.9 | 1.7 | 0.00 | 0.00 | 0.00 | 75 | 1015.8 |
| 20260903062229 | 82 | 273 | 0.0 | 0.0 | 0.00 | 0.00 | 0.00 | 75 | 1015.8 |
| 20260903061945 | 82 | 273 | 0.0 | 1.7 | 0.00 | 0.00 | 0.00 | 75 | 1015.7 |
| 20260903061604 | 82 | 273 | 0.0 | 0.9 | 0.00 | 0.00 | 0.00 | 75 | 1014.0 |
| 20260903061227 | 82 | 100 | 0.0 | 1.7 | 0.00 | 0.00 | 0.00 | 75 | 1015.8 |
| 20260903060943 | 82 | 100 | 0.9 | 1.7 | 0.00 | 0.00 | 0.00 | 75 | 1015.7 |
| 20260903060219 | 82 | 100 | 0.9 | 1.7 | 0.00 | 0.00 | 0.00 | 75 | 1015.7 |
| 20260903060006 | 82 | 99 | 0.9 | 1.7 | 0.00 | 0.00 | 0.00 | 75 | 1014.0 |
| 20260903055713 | 82 | 100 | 0.9 | 1.7 | 0.00 | 0.00 | 0.00 | 75 | 1015.7 |
| 20260903055211 | 82 | 99 | 0.9 | 2.6 | 0.00 | 0.00 | 0.00 | 74 | 1015.7 |
| 20260903054716 | 83 | 100 | 0.9 | 2.6 | 0.00 | 0.00 | 0.00 | 74 | 1015.7 |
| 20260903054546 | 82 | 99 | 0.9 | 2.6 | 0.00 | 0.00 | 0.00 | 74 | 1013.9 |
| 20260903054151 | 83 | 100 | 0.0 | 1.7 | 0.00 | 0.00 | 0.00 | 74 | 1015.6 |
| 20260903053652 | 83 | 273 | 0.0 | 1.7 | 0.00 | 0.00 | 0.00 | 73 | 1015.6 |
| 20260903053153 | 83 | 273 | 0.9 | 2.6 | 0.00 | 0.00 | 0.00 | 73 | 1015.6 |
| 20260903053058 | 83 | 273 | 0.0 | 2.6 | 0.00 | 0.00 | 0.00 | 73 | 1013.9 |
| 20260903052633 | 83 | 99 | 0.9 | 2.6 | 0.00 | 0.00 | 0.00 | 73 | 1015.6 |
| 20260903052113 | 83 | 273 | 0.9 | 2.6 | 0.00 | 0.00 | 0.00 | 73 | 1015.6 |
| 20260903051613 | 83 | 99 | 0.9 | 2.6 | 0.00 | 0.00 | 0.00 | 72 | 1015.6 |
| 20260903051543 | 83 | 99 | 0.9 | 2.6 | 0.00 | 0.00 | 0.00 | 73 | 1013.9 |
| 20260903051312 | 83 | 273 | 0.9 | 3.5 | 0.00 | 0.00 | 0.00 | 72 | 1015.6 |
| 20260903050550 | 83 | 273 | 1.7 | 6.1 | 0.00 | 0.00 | 0.00 | 72 | 1015.5 |
| 20260903050027 | 83 | 96 | 0.9 | 6.1 | 0.00 | 0.00 | 0.00 | 72 | 1015.5 |
| 20260903050007 | 83 | 97 | 2.6 | 6.1 | 0.00 | 0.00 | 0.00 | 72 | 1013.7 |
| 20260903045523 | 83 | 113 | 0.9 | 0.9 | 0.00 | 0.00 | 0.00 | 72 | 1015.5 |
| 20260903045004 | 84 | 113 | 0.9 | 2.6 | 0.00 | 0.00 | 0.00 | 72 | 1015.5 |
| 20260903044517 | 83 | 113 | 0.9 | 2.6 | 0.00 | 0.00 | 0.00 | 72 | 1013.7 |
| 20260903044503 | 84 | 114 | 0.9 | 2.6 | 0.00 | 0.00 | 0.00 | 72 | 1015.4 |
| 20260903044005 | 84 | 113 | 0.9 | 2.6 | 0.00 | 0.00 | 0.00 | 71 | 1015.4 |
| 20260903043450 | 84 | 113 | 0.9 | 1.7 | 0.00 | 0.00 | 0.00 | 71 | 1015.4 |
| 20260903043019 | 84 | 113 | 0.9 | 2.6 | 0.00 | 0.00 | 0.00 | 71 | 1013.7 |
| 20260903042949 | 84 | 113 | 0.9 | 2.6 | 0.00 | 0.00 | 0.00 | 71 | 1015.5 |
| 20260903042448 | 84 | 113 | 0.9 | 2.6 | 0.00 | 0.00 | 0.00 | 70 | 1015.4 |
| 20260903042212 | 84 | 113 | 0.9 | 1.7 | 0.00 | 0.00 | 0.00 | 70 | 1015.4 |
| 20260903041506 | 84 | 113 | 0.0 | 1.7 | 0.00 | 0.00 | 0.00 | 70 | 1013.6 |
| 20260903041434 | 84 | 113 | 0.9 | 1.7 | 0.00 | 0.00 | 0.00 | 70 | 1015.3 |
| 20260903041141 | 85 | 113 | 0.9 | 2.6 | 0.00 | 0.00 | 0.00 | 69 | 1015.4 |
| 20260903040421 | 85 | 113 | 0.9 | 2.6 | 0.00 | 0.00 | 0.00 | 69 | 1015.4 |
| 20260903040143 | 85 | 112 | 0.9 | 1.7 | 0.00 | 0.00 | 0.00 | 69 | 1015.4 |
| 20260903040001 | 84 | 112 | 0.0 | 1.7 | 0.00 | 0.00 | 0.00 | 69 | 1013.6 |
| 20260903035358 | 85 | 113 | 0.9 | 2.6 | 0.00 | 0.00 | 0.00 | 69 | 1015.4 |
| 20260903034827 | 85 | 112 | 0.9 | 2.6 | 0.00 | 0.00 | 0.00 | 69 | 1015.4 |
| 20260903034515 | 85 | 112 | 0.0 | 1.7 | 0.00 | 0.00 | 0.00 | 68 | 1013.7 |
| 20260903034325 | 85 | 112 | 0.9 | 1.7 | 0.00 | 0.00 | 0.00 | 68 | 1015.5 |
| 20260903033800 | 85 | 113 | 0.9 | 2.6 | 0.00 | 0.00 | 0.00 | 68 | 1015.5 |
| 20260903033722 | 85 | 112 | 0.9 | 2.6 | 0.00 | 0.00 | 0.00 | 68 | 1015.5 |
| 20260903033108 | 85 | 112 | 0.9 | 2.6 | 0.00 | 0.00 | 0.00 | 68 | 1013.7 |
| 20260903032705 | 86 | 112 | 0.9 | 1.7 | 0.00 | 0.00 | 0.00 | 67 | 1015.5 |
| 20260903032203 | 86 | 112 | 0.9 | 1.7 | 0.00 | 0.00 | 0.00 | 67 | 1015.5 |
| 20260903031659 | 86 | 113 | 0.9 | 2.6 | 0.00 | 0.00 | 0.00 | 67 | 1015.5 |
| 20260903031607 | 85 | 112 | 0.0 | 2.6 | 0.00 | 0.00 | 0.00 | 67 | 1013.8 |
| 20260903031157 | 86 | 112 | 0.9 | 2.6 | 0.00 | 0.00 | 0.00 | 67 | 1015.5 |
| 20260903030850 | 86 | 111 | 0.9 | 2.6 | 0.00 | 0.00 | 0.00 | 67 | 1015.5 |
| 20260903030126 | 86 | 111 | 0.9 | 2.6 | 0.00 | 0.00 | 0.00 | 66 | 1015.6 |
| 20260903030009 | 86 | 111 | 0.0 | 2.6 | 0.00 | 0.00 | 0.00 | 66 | 1013.9 |
| 20260903025622 | 87 | 110 | 0.9 | 2.6 | 0.00 | 0.00 | 0.00 | 66 | 1015.7 |
| 20260903025053 | 87 | 109 | 0.9 | 1.7 | 0.00 | 0.00 | 0.00 | 65 | 1015.7 |
| 20260903024552 | 87 | 109 | 0.9 | 2.6 | 0.00 | 0.00 | 0.00 | 65 | 1015.7 |
| 20260903024534 | 86 | 109 | 0.0 | 2.6 | 0.00 | 0.00 | 0.00 | 65 | 1014.0 |
| 20260903024047 | 87 | 109 | 0.9 | 2.6 | 0.00 | 0.00 | 0.00 | 65 | 1015.7 |
| 20260903023545 | 87 | 108 | 0.9 | 2.6 | 0.00 | 0.00 | 0.00 | 64 | 1015.8 |
| 20260903023059 | 87 | 108 | 0.0 | 3.5 | 0.00 | 0.00 | 0.00 | 64 | 1014.0 |
| 20260903023041 | 87 | 108 | 0.9 | 3.5 | 0.00 | 0.00 | 0.00 | 64 | 1015.8 |
| 20260903022541 | 87 | 107 | 1.7 | 3.5 | 0.00 | 0.00 | 0.00 | 64 | 1015.8 |
| 20260903022017 | 87 | 134 | 0.9 | 3.5 | 0.00 | 0.00 | 0.00 | 64 | 1015.8 |
| 20260903021503 | 87 | 134 | 0.9 | 3.5 | 0.00 | 0.00 | 0.00 | 64 | 1014.1 |
| 20260903021444 | 87 | 134 | 0.9 | 3.5 | 0.00 | 0.00 | 0.00 | 64 | 1015.8 |
| 20260903020943 | 87 | 137 | 0.9 | 3.5 | 0.00 | 0.00 | 0.00 | 64 | 1015.8 |
| 20260903020418 | 88 | 137 | 1.7 | 3.5 | 0.00 | 0.00 | 0.00 | 63 | 1015.7 |
| 20260903020104 | 88 | 137 | 0.9 | 3.5 | 0.00 | 0.00 | 0.00 | 63 | 1015.8 |
| 20260903020017 | 87 | 137 | 0.9 | 2.6 | 0.00 | 0.00 | 0.00 | 63 | 1014.0 |
| 20260903015348 | 88 | 139 | 0.9 | 3.5 | 0.00 | 0.00 | 0.00 | 63 | 1015.8 |
| 20260903014842 | 88 | 144 | 1.7 | 2.6 | 0.00 | 0.00 | 0.00 | 63 | 1015.8 |
| 20260903014532 | 87 | 145 | 0.9 | 2.6 | 0.00 | 0.00 | 0.00 | 63 | 1014.0 |
| 20260903014342 | 88 | 146 | 0.9 | 2.6 | 0.00 | 0.00 | 0.00 | 63 | 1015.8 |
| 20260903014042 | 88 | 149 | 0.9 | 2.6 | 0.00 | 0.00 | 0.00 | 63 | 1015.7 |
| 20260903013311 | 88 | 149 | 0.9 | 2.6 | 0.00 | 0.00 | 0.00 | 63 | 1015.6 |
| 20260903013048 | 87 | 148 | 0.9 | 2.6 | 0.00 | 0.00 | 0.00 | 62 | 1013.9 |
| 20260903012805 | 88 | 149 | 0.9 | 2.6 | 0.00 | 0.00 | 0.00 | 62 | 1015.6 |
| 20260903012505 | 88 | 149 | 1.7 | 4.3 | 0.00 | 0.00 | 0.00 | 62 | 1015.6 |
| 20260903011927 | 88 | 144 | 1.7 | 4.3 | 0.00 | 0.00 | 0.00 | 62 | 1015.5 |
| 20260903011509 | 88 | 145 | 1.7 | 4.3 | 0.00 | 0.00 | 0.00 | 62 | 1013.8 |
| 20260903011209 | 88 | 147 | 1.7 | 4.3 | 0.00 | 0.00 | 0.00 | 63 | 1015.5 |
| 20260903010645 | 88 | 134 | 0.9 | 3.5 | 0.00 | 0.00 | 0.00 | 63 | 1015.4 |
| 20260903010139 | 88 | 134 | 0.9 | 3.5 | 0.00 | 0.00 | 0.00 | 63 | 1015.4 |
| 20260903005637 | 88 | 145 | 0.9 | 1.7 | 0.00 | 0.00 | 0.00 | 63 | 1015.3 |
| 20260903005111 | 88 | 144 | 0.9 | 3.5 | 0.00 | 0.00 | 0.00 | 63 | 1015.3 |
| 20260903004828 | 88 | 145 | 0.9 | 3.5 | 0.00 | 0.00 | 0.00 | 62 | 1015.3 |
| 20260903004557 | 88 | 145 | 0.9 | 3.5 | 0.00 | 0.00 | 0.00 | 62 | 1013.5 |
| 20260903004103 | 88 | 172 | 1.7 | 3.5 | 0.00 | 0.00 | 0.00 | 62 | 1015.3 |
| 20260903003829 | 88 | 180 | 0.9 | 5.2 | 0.00 | 0.00 | 0.00 | 62 | 1015.3 |
| 20260903003059 | 88 | 180 | 0.9 | 5.2 | 0.00 | 0.00 | 0.00 | 62 | 1015.2 |
| 20260903003006 | 88 | 181 | 0.9 | 5.2 | 0.00 | 0.00 | 0.00 | 62 | 1013.4 |
| 20260903002815 | 89 | 198 | 1.7 | 4.3 | 0.00 | 0.00 | 0.00 | 62 | 1015.1 |
| 20260903002029 | 89 | 201 | 1.7 | 6.1 | 0.00 | 0.00 | 0.00 | 61 | 1015.2 |
| 20260903001518 | 89 | 214 | 1.7 | 6.1 | 0.00 | 0.00 | 0.00 | 60 | 1013.4 |
| 20260903001503 | 89 | 214 | 2.6 | 6.1 | 0.00 | 0.00 | 0.00 | 60 | 1015.2 |
| 20260903001001 | 89 | 183 | 2.6 | 6.1 | 0.00 | 0.00 | 0.00 | 60 | 1015.2 |
| 20260903000455 | 89 | 202 | 1.7 | 6.1 | 0.00 | 0.00 | 0.00 | 60 | 1015.2 |
| 20260903000221 | 90 | 165 | 1.7 | 5.2 | 0.00 | 0.00 | 0.00 | 60 | 1015.1 |
| 20260903000033 | 89 | 174 | 1.7 | 5.2 | 0.00 | 0.00 | 0.00 | 60 | 1013.4 |
| 20260902235429 | 90 | 182 | 1.7 | 5.2 | 0.00 | 0.00 | 0.00 | 59 | 1015.1 |
| 20260902234859 | 90 | 118 | 1.7 | 5.2 | 0.00 | 0.00 | 0.00 | 59 | 1015.1 |
| 20260902234617 | 90 | 93 | 1.7 | 5.2 | 0.00 | 0.00 | 0.00 | 59 | 1015.1 |
| 20260902234546 | 90 | 180 | 0.9 | 5.2 | 0.00 | 0.00 | 0.00 | 59 | 1013.4 |
| 20260902234058 | 91 | 176 | 2.6 | 10.4 | 0.00 | 0.00 | 0.00 | 58 | 1015.1 |
| 20260902233316 | 91 | 152 | 3.5 | 10.4 | 0.00 | 0.00 | 0.00 | 57 | 1015.0 |
| 20260902233017 | 91 | 128 | 2.6 | 6.1 | 0.00 | 0.00 | 0.00 | 57 | 1013.3 |
| 20260902232819 | 91 | 117 | 2.6 | 7.8 | 0.00 | 0.00 | 0.00 | 57 | 1015.0 |
| 20260902232249 | 91 | 150 | 3.5 | 7.8 | 0.00 | 0.00 | 0.00 | 56 | 1015.1 |
| 20260902231747 | 92 | 161 | 3.5 | 8.7 | 0.00 | 0.00 | 0.00 | 56 | 1015.1 |
| 20260902231521 | 91 | 150 | 3.5 | 7.8 | 0.00 | 0.00 | 0.00 | 55 | 1013.3 |
| 20260902231247 | 92 | 142 | 2.6 | 8.7 | 0.00 | 0.00 | 0.00 | 55 | 1015.1 |
| 20260902230940 | 92 | 178 | 2.6 | 6.1 | 0.00 | 0.00 | 0.00 | 56 | 1015.2 |
| 20260902230441 | 92 | 184 | 2.6 | 6.1 | 0.00 | 0.00 | 0.00 | 55 | 1015.2 |
| 20260902230035 | 92 | 91 | 1.7 | 5.2 | 0.00 | 0.00 | 0.00 | 55 | 1013.5 |
| 20260902225647 | 92 | 192 | 3.5 | 8.7 | 0.00 | 0.00 | 0.00 | 54 | 1015.2 |
| 20260902225147 | 92 | 196 | 3.5 | 9.6 | 0.00 | 0.00 | 0.00 | 54 | 1015.2 |
| 20260902224638 | 92 | 205 | 2.6 | 8.7 | 0.00 | 0.00 | 0.00 | 54 | 1013.5 |
| 20260902224619 | 93 | 206 | 3.5 | 9.6 | 0.00 | 0.00 | 0.00 | 54 | 1015.2 |
| 20260902224120 | 93 | 112 | 3.5 | 7.8 | 0.00 | 0.00 | 0.00 | 53 | 1015.3 |
| 20260902223553 | 93 | 159 | 2.6 | 8.7 | 0.00 | 0.00 | 0.00 | 54 | 1015.2 |
| 20260902223051 | 93 | 196 | 2.6 | 8.7 | 0.00 | 0.00 | 0.00 | 54 | 1015.3 |
| 20260902223019 | 93 | 196 | 2.6 | 8.7 | 0.00 | 0.00 | 0.00 | 53 | 1013.5 |
| 20260902222523 | 94 | 226 | 3.5 | 7.8 | 0.00 | 0.00 | 0.00 | 53 | 1015.3 |
| 20260902222442 | 94 | 175 | 3.5 | 8.7 | 0.00 | 0.00 | 0.00 | 52 | 1015.3 |
| 20260902221617 | 93 | 120 | 3.5 | 8.7 | 0.00 | 0.00 | 0.00 | 52 | 1013.6 |
| 20260902221434 | 94 | 188 | 2.6 | 8.7 | 0.00 | 0.00 | 0.00 | 51 | 1015.4 |
| 20260902220934 | 94 | 201 | 2.6 | 8.7 | 0.00 | 0.00 | 0.00 | 52 | 1015.4 |
| 20260902220408 | 94 | 178 | 3.5 | 7.8 | 0.00 | 0.00 | 0.00 | 52 | 1015.4 |
| 20260902220014 | 94 | 176 | 2.6 | 7.8 | 0.00 | 0.00 | 0.00 | 51 | 1013.6 |
| 20260902215853 | 94 | 199 | 3.5 | 8.7 | 0.00 | 0.00 | 0.00 | 52 | 1015.4 |
| 20260902215352 | 94 | 178 | 3.5 | 8.7 | 0.00 | 0.00 | 0.00 | 52 | 1015.4 |
| 20260902214852 | 94 | 176 | 3.5 | 10.4 | 0.00 | 0.00 | 0.00 | 53 | 1015.4 |
| 20260902214539 | 94 | 101 | 2.6 | 10.4 | 0.00 | 0.00 | 0.00 | 51 | 1013.6 |
| 20260902214351 | 94 | 87 | 4.3 | 10.4 | 0.00 | 0.00 | 0.00 | 51 | 1015.4 |
| 20260902213831 | 95 | 195 | 2.6 | 8.7 | 0.00 | 0.00 | 0.00 | 51 | 1015.4 |
| 20260902213328 | 95 | 165 | 2.6 | 7.8 | 0.00 | 0.00 | 0.00 | 51 | 1015.4 |
| 20260902213015 | 94 | 164 | 1.7 | 10.4 | 0.00 | 0.00 | 0.00 | 51 | 1013.6 |
| 20260902212826 | 95 | 222 | 3.5 | 10.4 | 0.00 | 0.00 | 0.00 | 51 | 1015.4 |
| 20260902212312 | 95 | 192 | 3.5 | 9.6 | 0.00 | 0.00 | 0.00 | 50 | 1015.5 |
| 20260902211747 | 95 | 158 | 4.3 | 9.6 | 0.00 | 0.00 | 0.00 | 51 | 1015.5 |
| 20260902211542 | 94 | 151 | 4.3 | 11.3 | 0.00 | 0.00 | 0.00 | 50 | 1013.8 |
| 20260902211248 | 95 | 161 | 4.3 | 11.3 | 0.00 | 0.00 | 0.00 | 51 | 1015.5 |
| 20260902210721 | 95 | 162 | 3.5 | 10.4 | 0.00 | 0.00 | 0.00 | 52 | 1015.6 |
| 20260902210203 | 96 | 204 | 3.5 | 10.4 | 0.00 | 0.00 | 0.00 | 50 | 1015.5 |
| 20260902210109 | 95 | 214 | 1.7 | 7.0 | 0.00 | 0.00 | 0.00 | 51 | 1013.8 |
| 20260902205703 | 95 | 163 | 3.5 | 7.0 | 0.00 | 0.00 | 0.00 | 53 | 1015.6 |
| 20260902205146 | 95 | 225 | 4.3 | 9.6 | 0.00 | 0.00 | 0.00 | 51 | 1015.7 |
| 20260902204647 | 95 | 193 | 3.5 | 9.6 | 0.00 | 0.00 | 0.00 | 49 | 1015.6 |
| 20260902204623 | 95 | 178 | 3.5 | 8.7 | 0.00 | 0.00 | 0.00 | 51 | 1015.6 |
| 20260902204548 | 95 | 199 | 4.3 | 9.6 | 0.00 | 0.00 | 0.00 | 50 | 1013.9 |
| 20260902203629 | 95 | 188 | 3.5 | 9.6 | 0.00 | 0.00 | 0.00 | 51 | 1015.7 |
| 20260902203356 | 95 | 213 | 3.5 | 9.6 | 0.00 | 0.00 | 0.00 | 50 | 1015.7 |
| 20260902203101 | 95 | 214 | 4.3 | 9.6 | 0.00 | 0.00 | 0.00 | 50 | 1014.0 |
| 20260902202614 | 95 | 132 | 4.3 | 9.6 | 0.00 | 0.00 | 0.00 | 51 | 1015.7 |
| 20260902202055 | 95 | 90 | 3.5 | 9.6 | 0.00 | 0.00 | 0.00 | 51 | 1015.7 |
| 20260902201634 | 95 | 171 | 3.5 | 7.8 | 0.00 | 0.00 | 0.00 | 49 | 1014.0 |
| 20260902201600 | 96 | 140 | 3.5 | 8.7 | 0.00 | 0.00 | 0.00 | 49 | 1015.8 |
| 20260902201056 | 95 | 219 | 3.5 | 8.7 | 0.00 | 0.00 | 0.00 | 50 | 1015.8 |
| 20260902200533 | 95 | 98 | 2.6 | 10.4 | 0.00 | 0.00 | 0.00 | 49 | 1015.8 |
| 20260902200029 | 95 | 130 | 0.9 | 10.4 | 0.00 | 0.00 | 0.00 | 50 | 1014.2 |
| 20260902200027 | 95 | 130 | 3.5 | 10.4 | 0.00 | 0.00 | 0.00 | 50 | 1015.9 |
| 20260902195526 | 95 | 205 | 5.2 | 10.4 | 0.00 | 0.00 | 0.00 | 49 | 1015.9 |
| 20260902195026 | 95 | 213 | 4.3 | 10.4 | 0.00 | 0.00 | 0.00 | 50 | 1016.0 |
| 20260902194528 | 95 | 132 | 4.3 | 9.6 | 0.00 | 0.00 | 0.00 | 49 | 1016.1 |
| 20260902194010 | 95 | 151 | 4.3 | 9.6 | 0.00 | 0.00 | 0.00 | 50 | 1016.1 |
| 20260902193509 | 95 | 178 | 3.5 | 9.6 | 0.00 | 0.00 | 0.00 | 50 | 1016.1 |
| 20260902193026 | 94 | 103 | 2.6 | 9.6 | 0.00 | 0.00 | 0.00 | 50 | 1014.5 |
| 20260902192951 | 95 | 114 | 3.5 | 9.6 | 0.00 | 0.00 | 0.00 | 50 | 1016.2 |
| 20260902192430 | 94 | 205 | 3.5 | 8.7 | 0.00 | 0.00 | 0.00 | 53 | 1016.3 |
| 20260902191930 | 94 | 99 | 4.3 | 10.4 | 0.00 | 0.00 | 0.00 | 50 | 1016.3 |
| 20260902191513 | 94 | 142 | 3.5 | 9.6 | 0.00 | 0.00 | 0.00 | 51 | 1014.7 |
| 20260902191428 | 94 | 100 | 2.6 | 10.4 | 0.00 | 0.00 | 0.00 | 53 | 1016.4 |
| 20260902190929 | 94 | 152 | 2.6 | 7.8 | 0.00 | 0.00 | 0.00 | 51 | 1016.4 |
| 20260902190428 | 93 | 163 | 3.5 | 9.6 | 0.00 | 0.00 | 0.00 | 52 | 1016.5 |
| 20260902190005 | 94 | 113 | 4.3 | 8.7 | 0.00 | 0.00 | 0.00 | 51 | 1014.9 |
| 20260902185927 | 94 | 132 | 4.3 | 9.6 | 0.00 | 0.00 | 0.00 | 51 | 1016.6 |
| 20260902185426 | 94 | 181 | 4.3 | 9.6 | 0.00 | 0.00 | 0.00 | 50 | 1016.6 |
| 20260902184929 | 94 | 268 | 3.5 | 9.6 | 0.00 | 0.00 | 0.00 | 52 | 1016.6 |
| 20260902184554 | 94 | 200 | 3.5 | 9.6 | 0.00 | 0.00 | 0.00 | 51 | 1014.9 |
| 20260902184406 | 94 | 206 | 2.6 | 9.6 | 0.00 | 0.00 | 0.00 | 50 | 1016.6 |
| 20260902184105 | 94 | 188 | 4.3 | 10.4 | 0.00 | 0.00 | 0.00 | 50 | 1016.7 |
| 20260902183316 | 94 | 112 | 5.2 | 10.4 | 0.00 | 0.00 | 0.00 | 50 | 1016.8 |
| 20260902183046 | 93 | 130 | 6.1 | 10.4 | 0.00 | 0.00 | 0.00 | 50 | 1015.0 |
| 20260902182747 | 94 | 203 | 3.5 | 9.6 | 0.00 | 0.00 | 0.00 | 51 | 1016.8 |
| 20260902182223 | 93 | 150 | 2.6 | 8.7 | 0.00 | 0.00 | 0.00 | 52 | 1016.7 |
| 20260902181917 | 92 | 228 | 2.6 | 8.7 | 0.00 | 0.00 | 0.00 | 53 | 1017.0 |
| 20260902181620 | 92 | 203 | 2.6 | 8.7 | 0.00 | 0.00 | 0.00 | 53 | 1015.2 |
| 20260902181200 | 93 | 212 | 2.6 | 10.4 | 0.00 | 0.00 | 0.00 | 53 | 1017.0 |
| 20260902181113 | 93 | 166 | 3.5 | 10.4 | 0.00 | 0.00 | 0.00 | 52 | 1017.0 |
| 20260902180106 | 93 | 199 | 4.3 | 9.6 | 0.00 | 0.00 | 0.00 | 53 | 1017.1 |
| 20260902180057 | 93 | 215 | 1.7 | 8.7 | 0.00 | 0.00 | 0.00 | 53 | 1015.3 |
| 20260902175828 | 93 | 136 | 3.5 | 9.6 | 0.00 | 0.00 | 0.00 | 53 | 1017.1 |
| 20260902175105 | 92 | 193 | 3.5 | 9.6 | 0.00 | 0.00 | 0.00 | 57 | 1017.1 |
| 20260902174822 | 92 | 209 | 4.3 | 8.7 | 0.00 | 0.00 | 0.00 | 56 | 1017.2 |
| 20260902174540 | 91 | 135 | 2.6 | 9.6 | 0.00 | 0.00 | 0.00 | 56 | 1015.4 |
| 20260902174032 | 92 | 118 | 3.5 | 11.3 | 0.00 | 0.00 | 0.00 | 55 | 1017.4 |
| 20260902173743 | 93 | 148 | 3.5 | 8.7 | 0.00 | 0.00 | 0.00 | 57 | 1017.4 |
| 20260902173025 | 93 | 103 | 4.3 | 9.6 | 0.00 | 0.00 | 0.00 | 56 | 1017.5 |
| 20260902173010 | 93 | 122 | 3.5 | 9.6 | 0.00 | 0.00 | 0.00 | 56 | 1015.6 |
| 20260902172744 | 93 | 122 | 3.5 | 12.2 | 0.00 | 0.00 | 0.00 | 56 | 1017.4 |
| 20260902171954 | 93 | 185 | 3.5 | 12.2 | 0.00 | 0.00 | 0.00 | 57 | 1017.5 |
| 20260902171506 | 92 | 166 | 2.6 | 9.6 | 0.00 | 0.00 | 0.00 | 55 | 1015.7 |
| 20260902171428 | 93 | 123 | 3.5 | 9.6 | 0.00 | 0.00 | 0.00 | 55 | 1017.5 |
| 20260902170901 | 93 | 185 | 2.6 | 9.6 | 0.00 | 0.00 | 0.00 | 57 | 1017.5 |
| 20260902170347 | 92 | 195 | 5.2 | 9.6 | 0.00 | 0.00 | 0.00 | 58 | 1017.6 |
| 20260902170045 | 92 | 191 | 2.6 | 11.3 | 0.00 | 0.00 | 0.00 | 57 | 1015.8 |
| 20260902165811 | 92 | 217 | 5.2 | 11.3 | 0.00 | 0.00 | 0.00 | 56 | 1017.7 |
| 20260902165308 | 92 | 200 | 3.5 | 11.3 | 0.00 | 0.00 | 0.00 | 56 | 1017.7 |
| 20260902164802 | 93 | 162 | 2.6 | 8.7 | 0.00 | 0.00 | 0.00 | 55 | 1017.7 |
| 20260902164518 | 92 | 250 | 1.7 | 7.8 | 0.00 | 0.00 | 0.00 | 56 | 1016.0 |
| 20260902164234 | 92 | 166 | 3.5 | 7.8 | 0.00 | 0.00 | 0.00 | 58 | 1017.6 |
| 20260902163955 | 92 | 169 | 3.5 | 7.0 | 0.00 | 0.00 | 0.00 | 57 | 1017.8 |
| 20260902163207 | 92 | 188 | 3.5 | 7.0 | 0.00 | 0.00 | 0.00 | 57 | 1017.8 |
| 20260902163052 | 91 | 190 | 2.6 | 7.0 | 0.00 | 0.00 | 0.00 | 58 | 1016.0 |
| 20260902162923 | 91 | 125 | 3.5 | 7.8 | 0.00 | 0.00 | 0.00 | 58 | 1017.7 |
| 20260902162200 | 91 | 194 | 3.5 | 8.7 | 0.00 | 0.00 | 0.00 | 58 | 1017.7 |
| 20260902161637 | 91 | 130 | 2.6 | 8.7 | 0.00 | 0.00 | 0.00 | 59 | 1017.7 |
| 20260902161605 | 91 | 129 | 2.6 | 8.7 | 0.00 | 0.00 | 0.00 | 60 | 1016.0 |
| 20260902161106 | 91 | 226 | 2.6 | 7.0 | 0.00 | 0.00 | 0.00 | 61 | 1017.7 |
| 20260902160604 | 90 | 172 | 2.6 | 7.0 | 0.00 | 0.00 | 0.00 | 62 | 1017.8 |
| 20260902160039 | 90 | 189 | 2.6 | 6.1 | 0.00 | 0.00 | 0.00 | 61 | 1017.9 |
| 20260902160009 | 90 | 181 | 1.7 | 5.2 | 0.00 | 0.00 | 0.00 | 61 | 1016.2 |
| 20260902155510 | 90 | 184 | 2.6 | 6.1 | 0.00 | 0.00 | 0.00 | 62 | 1017.9 |
| 20260902154945 | 90 | 205 | 2.6 | 5.2 | 0.00 | 0.00 | 0.00 | 63 | 1018.0 |
| 20260902154600 | 89 | 140 | 1.7 | 7.0 | 0.00 | 0.00 | 0.00 | 63 | 1016.2 |